{"data":{"norad_id":43170,"epoch":"2026-09-20T04:01:26.470272Z","epoch_age_seconds":46963,"freshness":"FRESH","line1":"1 43170U 18011B   26263.16766748  .00001626  00000+0  12050-3 0  9995","line2":"2 43170  34.9964 291.9021 0002733  88.2725 271.8296 15.03028616472441","mean_motion":15.03028616,"eccentricity":0.0002733,"inclination_deg":34.9964,"raan_deg":291.9021,"arg_perigee_deg":88.2725,"mean_anomaly_deg":271.8296,"bstar":0.0001205,"rev_number":47244,"period_min":95.80655914804,"perigee_km":555.66814678329,"apogee_km":559.45920077158,"semimajor_km":6935.7006737774,"source":"CELESTRAK","updated_at":"2026-09-20T09:00:14.304924Z"}}